Regional Weather Roundup
Issued by NWS

Home | Current Version | Previous Version | Graphics & Text | Print | Product List | Glossary On
Versions: 1 2 3 4 5 6 7 8 9 10 11 12 13 14 15 16 17 18 19 20 21 22 23 24 25 26 27 28 29 30 31 32 33 34 35 36 37 38 39 40 41 42 43 44 45 46 47 48 49 50
000
ASUS43 KOAX 271502
RWRNE

WEATHER ROUNDUP FOR NEBRASKA
NATIONAL WEATHER SERVICE OMAHA NE
900 AM CST SAT DEC 27 2014

NOTES: SATELLITE DATA IS BEING USED TO AUGMENT CLOUD COVER ABOVE
       12000 FEET.
       "FAIR" INDICATES FEW OR NO CLOUDS BELOW 12,000 FEET WITH NO
       SIGNIFICANT WEATHER AND/OR OBSTRUCTIONS TO VISIBILITY.

  * THESE STATIONS DO NOT REPORT WEATHER SUCH AS RAIN...SNOW OR FOG.

NEZ001>004-019>022-054>056-271600-
NEBRASKA PANHANDLE

CITY           SKY/WX    TMP DP  RH WIND       PRES   REMARKS
SCOTTSBLUFF    MOCLDY     0  -3  87 NW8       30.16S WCI -14
ALLIANCE       PTCLDY    -3  -6  87 W9        30.13R WCI -19
CHADRON        PTCLDY     5   2  87 W6        30.15S WCI  -6
KIMBALL        PTCLDY     7   1  74 W14       30.10S WCI  -9
SIDNEY         PTCLDY     4  -3  73 W15       30.14S WCI -14
$$

NEZ057>060-069>072-079>082-271600-
SOUTHWEST NEBRASKA

CITY           SKY/WX    TMP DP  RH WIND       PRES   REMARKS
NORTH PLATTE   PTCLDY    -3  -5  90 CALM      30.22R
IMPERIAL       MOCLDY     4  -1  80 SW7       30.23R WCI  -8
LEXINGTON      MOCLDY     5   2  88 W7        30.25R WCI  -7
MCCOOK         MOCLDY     9   5  84 W8        30.27R WCI  -3
OGALLALA       PTCLDY     2   0  88 W8        30.20R WCI -11
$$

NEZ005>010-023>029-035>040-094-271600-
NORTH CENTRAL NEBRASKA

CITY           SKY/WX    TMP DP  RH WIND       PRES   REMARKS
VALENTINE      PTCLDY     1  -3  83 SW8       30.16S WCI -13
AINSWORTH      PTCLDY     6   3  86 W5        30.16R WCI  -2
BROKEN BOW     PTCLDY    10   4  76 NW8       30.21R WCI  -2
O`NEILL        PTCLDY     6   5  92 W8        30.18R WCI  -6
ORD            PTCLDY     7   4  87 W6        30.22R WCI  -3
$$

NEZ041-046>049-061>064-073>077-083>087-271600-
SOUTH CENTRAL NEBRASKA

CITY           SKY/WX    TMP DP  RH WIND       PRES   REMARKS
GRAND ISLAND   MOCLDY     9   5  84 W10       30.26R WCI  -5
AURORA         PTCLDY    14  12  90 NW12      30.24R WCI   1
HASTINGS       PTCLDY    12   8  84 NW13      30.24R WCI  -3
HEBRON         PTCLDY    17  13  82 NW6       30.28R WCI   9
HOLDREGE       PTCLDY     9   6  87 W8        30.24F WCI  -3
KEARNEY *      PTCLDY     9   5  85 W7        30.25S WCI  -3
YORK           CLEAR     14  10  85 NW13      30.23R WCI   0
$$

NEZ011>018-030>034-042>045-271600-
NORTHEAST NEBRASKA

CITY           SKY/WX    TMP DP  RH WIND       PRES   REMARKS
NORFOLK        CLEAR     14  10  84 W8        30.21R WCI   3
ALBION         PTCLDY     9   6  87 CALM      30.23R
BLAIR          PTCLDY    19  15  82 NW10      30.21R WCI   8
COLUMBUS *     CLEAR     12   3  67 W9        30.25R WCI   0
FREMONT        CLEAR     17  13  84 W5        30.23R WCI  10
TEKAMAH        CLEAR     19  13  77 NW15      30.23R WCI   5
WAYNE          CLEAR     12   9  86 NW7       30.22R WCI   2
$$

NEZ050>053-065>068-078-088>093-271600-
SOUTHEAST NEBRASKA

CITY           SKY/WX    TMP DP  RH WIND       PRES   REMARKS
LINCOLN        CLEAR     19  13  77 NW9       30.27R WCI   8
OMAHA EPPLEY   MOCLDY    22  17  81 NW12      30.24R WCI  10
BEATRICE       SUNNY     19  15  84 NW7       30.27R WCI  10
FALLS CITY     CLOUDY    25  19  78 NW12      30.26R WCI  14
NEBRASKA CITY  MOSUNNY   22  19  87 NW13      30.23R WCI  10
PLATTSMOUTH    MOSUNNY   21  17  84 NW12      30.22R WCI   9
$$

NEZ044-045-051>053-067-271600-
OMAHA AREA

CITY           SKY/WX    TMP DP  RH WIND       PRES   REMARKS
OMAHA EPPLEY   MOCLDY    22  17  81 NW12      30.24R WCI  10
BLAIR          PTCLDY    19  15  82 NW10      30.21R WCI   8
FREMONT        CLEAR     17  13  84 W5        30.23R WCI  10
MILLARD        CLEAR     21  15  79 NW7       30.24R WCI  12
OFFUTT AFB     MOCLDY    22  17  83 NW12      30.23R WCI  10
PLATTSMOUTH    MOSUNNY   21  17  84 NW12      30.22R WCI   9
WAHOO          FAIR      19  14  81 NW9       30.24R WCI   7
$$


USA.gov is the U.S. government's official web portal to all federal, state and local government web resources and services.